Terminal Aerodrome Forecast
Issued by NWS Charleston, WV

Current Version | Previous Version | Text Only | Print | Product List | Glossary Off
Versions: 1 2 3 4 5 6 7 8 9 10 11 12 13 14 15 16 17 18 19 20 21 22 23 24 25

726
FTUS41 KRLX 302338
TAFCRW
TAF
KCRW 302338Z 0100/0124 23005KT 6SM SHRA OVC060
     FM010300 26006KT P6SM SCT060
     FM011000 26006KT P6SM BKN025
     FM011700 26009G15KT P6SM BKN035=

USA.gov is the U.S. government's official web portal to all federal, state and local government web resources and services.